TOURFACTS.DK  
Stats and Facts from Tour de France.

Tour de France 2018 starts in 254 days
  Riders   Stages   Teams   Summits   Yearly  


 
Search by year

 2017 - St. 21:  14824 starters.
  5131 different riders.
  634 teams.
  2232 stages.
  454 restdays.
  439589.60 km.
  5653 abandonnees.


Top 3
Christopher Froome86:20:55
Rigoberto Uran86:21:49
Romain Bardet86:23:15
Warren Barguil169 pt.
Primoz Roglic80 pt.
Thomas De Gendt64 pt.
Michael Matthews359 pt.
André Greipel234 pt.
Edvald Boasson Hagen220 pt.
Simon Yates86:27:09
Louis Meintjes86:29:15
Emanuel Buchmann86:54:16
Facts from Tour de France 2014
  |   Stages.  |   Stage winners.  |   Days in yellow  |   Average speed.  |   Route.  |   Teams.  |   All riders.  |   Rookies.  |   Withdrawls.  |  

  |   GC.  |   Polka  |   Green  |   White  |   Summits. (In tour)  |   Summits. (Points)  |   Miscellaneous.  |  

Stage 19 on 25 - 07 - 2014
         Owning:    Vincenzo Nibali      Rafal Majka      Peter Sagan      Thibaut Pinot  

Pick a stage:  1 2 3 4 5 6 7 8 9 10 11 12 13 14 15 16 17 18 19 20 21
  Maubourguet-Pays-du-Val-d´AdourBergerac | Dist: 208.50 km.
Cat: 4Côte de MonbazillacNEDTom-Jelte Slagter
1 point
 

Average speed for all riders in stage:  43,601 km./hr.
    Place:Name:Team:Time:Km/h:
URSRamunas NavardauskasUSAGarmin Sharp04:43:41  +  00:00:00=44,098 
GERJohn DegenkolbNLDTeam Giant - Shimano04:43:48  +  00:00:07=44,080 
NORAlexander KristoffRUSTeam Katusha04:43:48  +  00:00:07=44,080 
4 AUSMark RenshawBELOmega Pharma – Quick Step04:43:48  +  00:00:07=44,080 
5 ITADaniele BennatiRUSTinkoff Saxo04:43:48  +  00:00:07=44,080 
6 ITAAlessandro PetacchiBELOmega Pharma – Quick Step04:43:48  +  00:00:07=44,080 
7 FRASamuel DumoulinFRAAg2r La Mondiale04:43:48  +  00:00:07=44,080 
8 FRAJulien SimonFRACofidis – Solutions Crédits04:43:48  +  00:00:07=44,080 
9 BELSep VanmarckeNLDBelkin Pro Cycling04:43:48  +  00:00:07=44,080 
10 BELJürgen RoelandtsBELLotto-Belisol Team04:43:48  +  00:00:07=44,080 
11 FRARomain FeilluFRABretagne - Séché Environnement04:43:48  +  00:00:07=44,080 
12 ITAMatteo TrentinBELOmega Pharma – Quick Step04:43:48  +  00:00:07=44,080 
13 BELJan BakelantsBELOmega Pharma – Quick Step04:43:48  +  00:00:07=44,080 
14 DENMichael MørkøvRUSTinkoff Saxo04:43:48  +  00:00:07=44,080 
15 ITAMarco MarcatoITACannondale Pro Cycling04:43:48  +  00:00:07=44,080 
16 ITAGiovanni ViscontiESPMovistar Team04:43:48  +  00:00:07=44,080 
17 ESPJesus HerradaESPMovistar Team04:43:48  +  00:00:07=44,080 
18 FRAThibaut PinotFRAFDJ.fr04:43:48  +  00:00:07=44,080 
19 FRAArnold JeannessonFRAFDJ.fr04:43:48  +  00:00:07=44,080 
20 ESPAlejandro ValverdeESPMovistar Team04:43:48  +  00:00:07=44,080 
21 NEDNiki TerpstraBELOmega Pharma – Quick Step04:43:48  +  00:00:07=44,080 
22 FRACédric PineauFRAFDJ.fr04:43:48  +  00:00:07=44,080 
23 FRACyril LemoineFRACofidis – Solutions Crédits04:43:48  +  00:00:07=44,080 
24 ITAVincenzo NibaliKAZAstana Pro Team04:43:48  +  00:00:07=44,080 
25 URSTanel KangertKAZAstana Pro Team04:43:48  +  00:00:07=44,080 
26 FRARudy MolardFRACofidis – Solutions Crédits04:43:48  +  00:00:07=44,080 
27 ITADaniel OssUSABMC Racing Team04:43:48  +  00:00:07=44,080 
28 WALGeraint ThomasGBRSky Procycling04:43:48  +  00:00:07=44,080 
29 NEDSteven KruijswijkNLDBelkin Pro Cycling04:43:48  +  00:00:07=44,080 
30 USATejay Van GarderenUSABMC Racing Team04:43:48  +  00:00:07=44,080 
31 SVKPeter VelitsUSABMC Racing Team04:43:48  +  00:00:07=44,080 
32 FRAPierre RollandFRATeam Europcar04:43:48  +  00:00:07=44,080 
33 RUSYury TrofimovRUSTeam Katusha04:43:48  +  00:00:07=44,080 
34 ESPMikel NieveGBRSky Procycling04:43:48  +  00:00:07=44,080 
35 BELJurgen Van Den BroeckBELLotto-Belisol Team04:43:48  +  00:00:07=44,080 
36 ITALuca PaoliniRUSTeam Katusha04:43:48  +  00:00:07=44,080 
37 SUIJakob FuglsangKAZAstana Pro Team04:43:48  +  00:00:07=44,080 
38 JPNChristopher HornerITALampre-Merida04:43:48  +  00:00:07=44,080 
39 SUIGregory RastUSATrek Factory Racing04:43:48  +  00:00:07=44,080 
40 SUIMichael SchärUSABMC Racing Team04:43:48  +  00:00:07=44,080 
41 AUSAdam HansenBELLotto-Belisol Team04:43:48  +  00:00:07=44,080 
42 GERAndré GreipelBELLotto-Belisol Team04:43:48  +  00:00:07=44,080 
43 SUIMichael AlbasiniAUSOrica - GreenEDGE04:43:48  +  00:00:07=44,080 
44 HRVKristijan DurasekITALampre-Merida04:43:48  +  00:00:07=44,080 
45 FRATony GallopinBELLotto-Belisol Team04:43:48  +  00:00:07=44,080 
46 FRAJean-Christophe PeraudFRAAg2r La Mondiale04:43:48  +  00:00:07=44,080 
47 ESPHaimar ZubeldiaUSATrek Factory Racing04:43:48  +  00:00:07=44,080 
48 NEDBauke MollemaNLDBelkin Pro Cycling04:43:48  +  00:00:07=44,080 
49 FRANicolas RocheRUSTinkoff Saxo04:43:48  +  00:00:07=44,080 
50 FRAJohn GadretESPMovistar Team04:43:48  +  00:00:07=44,080 
51 AUSMichael RogersRUSTinkoff Saxo04:43:48  +  00:00:07=44,080 
52 ITADavide CimolaiITALampre-Merida04:43:48  +  00:00:07=44,080 
53 LUXFränk SchleckUSATrek Factory Racing04:43:48  +  00:00:07=44,080 
54 FRABryan CoquardFRATeam Europcar04:43:48  +  00:00:07=44,080 
55 POLMichal GolasBELOmega Pharma – Quick Step04:43:48  +  00:00:07=44,080 
56 NEDLaurens ten DamNLDBelkin Pro Cycling04:43:48  +  00:00:07=44,080 
57 NEDBram TankinkNLDBelkin Pro Cycling04:43:48  +  00:00:07=44,080 
58 LUXBen GastauerFRAAg2r La Mondiale04:43:48  +  00:00:07=44,080 
59 FRARomain BardetFRAAg2r La Mondiale04:43:48  +  00:00:07=44,080 
60 ITAMatteo MontagutiFRAAg2r La Mondiale04:43:48  +  00:00:07=44,080 
61 ESPMarkel IrizarUSATrek Factory Racing04:43:48  +  00:00:07=44,080 
62 BELGreg Van AvermaetUSABMC Racing Team04:43:48  +  00:00:07=44,080 
63 CZELeopold KönigDEUTeam NetApp – Endura04:43:48  +  00:00:07=44,080 
64 SVKPeter SaganITACannondale Pro Cycling04:43:48  +  00:00:07=44,080 
65 ESPBeñat IntxaustiESPMovistar Team04:43:48  +  00:00:07=44,080 
66 AUSSimon ClarkeAUSOrica - GreenEDGE04:43:48  +  00:00:07=44,080 
67 NZLJack BauerUSAGarmin Sharp04:43:48  +  00:00:07=44,080 
68 FRABrice FeilluFRABretagne - Séché Environnement04:44:47  +  00:01:06=43,928 
69 CANChristian MeierAUSOrica - GreenEDGE04:44:47  +  00:01:06=43,928 
70 ESPLuis Angel MateFRACofidis – Solutions Crédits04:44:47  +  00:01:06=43,928 
71 FRAAlexandre PichotFRATeam Europcar04:44:47  +  00:01:06=43,928 
72 NEDTom DumoulinNLDTeam Giant - Shimano04:44:47  +  00:01:06=43,928 
73 FRAJérôme PineauCHEIAM Cycling04:44:47  +  00:01:06=43,928 
74 ITAMatteo TosattoRUSTinkoff Saxo04:44:47  +  00:01:06=43,928 
75 FRAChristophe RiblonFRAAg2r La Mondiale04:44:47  +  00:01:06=43,928 
76 BELJens KeukeleireAUSOrica - GreenEDGE04:44:47  +  00:01:06=43,928 
77 GERJens VoigtUSATrek Factory Racing04:46:51  +  00:03:10=43,612 
78 FRASylvain ChavanelCHEIAM Cycling04:46:51  +  00:03:10=43,612 
79 FRAArmindo FonsecaFRABretagne - Séché Environnement04:46:51  +  00:03:10=43,612 
80 SUIMarcel WyssCHEIAM Cycling04:46:51  +  00:03:10=43,612 
81 UKRAndriy GrivkoKAZAstana Pro Team04:46:51  +  00:03:10=43,612 
82 ITAAlessandro VanottiKAZAstana Pro Team04:46:51  +  00:03:10=43,612 
83 FRAAnthony DelaplaceFRABretagne - Séché Environnement04:46:51  +  00:03:10=43,612 
84 GERTony MartinBELOmega Pharma – Quick Step04:46:51  +  00:03:10=43,612 
85 FRAMickael DelageFRAFDJ.fr04:46:51  +  00:03:10=43,612 
86 FRAJean-Marc BideauFRABretagne - Séché Environnement04:46:51  +  00:03:10=43,612 
87 JPNYukiya ArashiroFRATeam Europcar04:46:51  +  00:03:10=43,612 
88 FRAMickaël CherelFRAAg2r La Mondiale04:46:51  +  00:03:10=43,612 
89 USABenjamin KingUSAGarmin Sharp04:46:51  +  00:03:10=43,612 
90 BELJohan VansummerenUSAGarmin Sharp04:46:51  +  00:03:10=43,612 
91 POLBartosz HuzarskiDEUTeam NetApp – Endura04:47:28  +  00:03:47=43,518 
92 NEDTom-Jelte SlagterUSAGarmin Sharp04:48:01  +  00:04:20=43,435 
93 NEDAlbert TimmerNLDTeam Giant - Shimano04:48:15  +  00:04:34=43,400 
94 ITAAlessandro De MarchiITACannondale Pro Cycling04:48:19  +  00:04:38=43,390 
95 POLMaciej BodnarITACannondale Pro Cycling04:48:19  +  00:04:38=43,390 
96 FRAPerrig QuemeneurFRATeam Europcar04:48:53  +  00:05:12=43,305 
97 FRACyril GautierFRATeam Europcar04:48:53  +  00:05:12=43,305 
98 KAZDmitriy GruzdevKAZAstana Pro Team04:48:53  +  00:05:12=43,305 
99 URSGatis SmukulisRUSTeam Katusha04:48:53  +  00:05:12=43,305 
100 GERMarcus BurghardtUSABMC Racing Team04:48:53  +  00:05:12=43,305 
101 NEDTom LeezerNLDBelkin Pro Cycling04:48:53  +  00:05:12=43,305 
102 PORSergio PaulinhoRUSTinkoff Saxo04:48:53  +  00:05:12=43,305 
103 FRAMatthieu LadagnousFRAFDJ.fr04:48:53  +  00:05:12=43,305 
104 FRAAmaël MoinardUSABMC Racing Team04:48:53  +  00:05:12=43,305 
105 FRAFlorian GuillouFRABretagne - Séché Environnement04:48:53  +  00:05:12=43,305 
106 URSRein TaaramäeFRACofidis – Solutions Crédits04:48:53  +  00:05:12=43,305 
107 FRAThomas VoecklerFRATeam Europcar04:48:57  +  00:05:16=43,295 
108 NEDSebastian LangeveldUSAGarmin Sharp04:48:57  +  00:05:16=43,295 
109 USAAlex HowesUSAGarmin Sharp04:48:57  +  00:05:16=43,295 
110 PORJosé João PimentaDEUTeam NetApp – Endura04:49:39  +  00:05:58=43,190 
111 CZEJan BártaDEUTeam NetApp – Endura04:49:39  +  00:05:58=43,190 
112 FRAWilliam BonnetFRAFDJ.fr04:49:39  +  00:05:58=43,190 
113 FRAJérémy RoyFRAFDJ.fr04:49:39  +  00:05:58=43,190 
114 NEDLars BoomNLDBelkin Pro Cycling04:49:39  +  00:05:58=43,190 
115 USAPeter StetinaUSABMC Racing Team04:49:39  +  00:05:58=43,190 
116 FRAKévin RezaFRATeam Europcar04:49:39  +  00:05:58=43,190 
117 POLRafal MajkaRUSTinkoff Saxo04:49:39  +  00:05:58=43,190 
118 KAZMaxim IglinskiyKAZAstana Pro Team04:49:39  +  00:05:58=43,190 
119 NEDLieuwe WestraKAZAstana Pro Team04:49:39  +  00:05:58=43,190 
120 FRAYohann GèneFRATeam Europcar04:49:39  +  00:05:58=43,190 
121 PORTiago PintoDEUTeam NetApp – Endura04:49:39  +  00:05:58=43,190 
122 AUSRichie PorteGBRSky Procycling04:49:39  +  00:05:58=43,190 
123 ESPRubén PlazaESPMovistar Team04:49:39  +  00:05:58=43,190 
124 ESPJon Izaguirre InsaustiESPMovistar Team04:49:39  +  00:05:58=43,190 
125 NEDRoy CurversNLDTeam Giant - Shimano04:49:39  +  00:05:58=43,190 
126 ESPDavid LopezGBRSky Procycling04:49:39  +  00:05:58=43,190 
127 ESPJoaquim RodriguezRUSTeam Katusha04:49:39  +  00:05:58=43,190 
128 FRAJean-Marc MarinoITACannondale Pro Cycling04:49:39  +  00:05:58=43,190 
129 FRASébastien MinardFRAAg2r La Mondiale04:49:39  +  00:05:58=43,190 
130 SUIMartin ElmigerCHEIAM Cycling04:49:39  +  00:05:58=43,190 
131 GERPaul VossDEUTeam NetApp – Endura04:49:39  +  00:05:58=43,190 
132 AUSZakkari DempsterDEUTeam NetApp – Endura04:49:39  +  00:05:58=43,190 
133 USAMatthew BuscheUSATrek Factory Racing04:49:39  +  00:05:58=43,190 
134 GERAndreas SchillingerDEUTeam NetApp – Endura04:49:39  +  00:05:58=43,190 
135 COLJosé SerpaITALampre-Merida04:49:39  +  00:05:58=43,190 
136 FRABenoît JarrierFRABretagne - Séché Environnement04:49:39  +  00:05:58=43,190 
137 ITAMichele ScarponiKAZAstana Pro Team04:49:39  +  00:05:58=43,190 
138 BELMaarten WynantsNLDBelkin Pro Cycling04:49:39  +  00:05:58=43,190 
139 ESPImanol ErvitiESPMovistar Team04:49:39  +  00:05:58=43,190 
140 USADanny PateGBRSky Procycling04:49:39  +  00:05:58=43,190 
141 NEDTom VeelersNLDTeam Giant - Shimano04:49:39  +  00:05:58=43,190 
142 GERMarcel KittelNLDTeam Giant - Shimano04:49:39  +  00:05:58=43,190 
143 BLRVasil KiryienkaGBRSky Procycling04:49:39  +  00:05:58=43,190 
144 FRAFlorian VachonFRABretagne - Séché Environnement04:49:49  +  00:06:08=43,165 
145 ITAFabio SabatiniITACannondale Pro Cycling04:51:38  +  00:07:57=42,896 
146 SLOKristjan KorenITACannondale Pro Cycling04:51:38  +  00:07:57=42,896 
147 FRAAdrien PetitFRACofidis – Solutions Crédits04:51:38  +  00:07:57=42,896 
148 DENLars BakBELLotto-Belisol Team04:51:38  +  00:07:57=42,896 
149 NEDKoen De KortNLDTeam Giant - Shimano04:51:38  +  00:07:57=42,896 
150 ITAElia VivianiITACannondale Pro Cycling04:51:38  +  00:07:57=42,896 
151 GERRoger KlugeCHEIAM Cycling04:51:38  +  00:07:57=42,896 
152 AUSLuke DurbridgeAUSOrica - GreenEDGE04:51:38  +  00:07:57=42,896 
153 RUSVladimir IsaichevRUSTeam Katusha04:51:38  +  00:07:57=42,896 
154 FRANicolas EdetFRACofidis – Solutions Crédits04:51:38  +  00:07:57=42,896 
155 AUTBernhard EiselGBRSky Procycling04:51:38  +  00:07:57=42,896 
156 GERMarcel SiebergBELLotto-Belisol Team04:51:38  +  00:07:57=42,896 
157 CANSvein TuftAUSOrica - GreenEDGE04:51:38  +  00:07:57=42,896 
158 POLMichal KwiatkowskiBELOmega Pharma – Quick Step04:51:38  +  00:07:57=42,896 
159 PORNelson OliveiraITALampre-Merida04:51:38  +  00:07:57=42,896 
160 FRABlel KadriFRAAg2r La Mondiale04:51:38  +  00:07:57=42,896 
161 SUISébastien ReichenbachCHEIAM Cycling04:51:38  +  00:07:57=42,896 
162 FRAArnaud DémareFRAFDJ.fr04:51:44  +  00:08:03=42,882 
163 FRAArnaud GérardFRABretagne - Séché Environnement04:52:33  +  00:08:52=42,762 
164 CHNCheng JiNLDTeam Giant - Shimano04:56:22  +  00:12:41=42,211 


Todays birthdays.

1886  Jean Meziere
1887  Pierre Herbette
1887  Octave Lapize
1898  Felix Manthey
1920  René Biever
1920  Georges Ramoulux
1928  René Marigil
1940  Jean-Pierre Genet
1944  Giannino Bianco
1945  Eddy Cael
1950  Bert Pronk
1954  Marc Dierickx
1961  Chris Carmichael
1973  Levi Leipheimer